THORAD AGENA D DEB, 42531

Orbit data source: Space-Track

THORAD AGENA D DEB, 42531 is space debris in SSO originally from a launch on Wed, 08 Apr 1970 UTC launched from the Air Force Western Test Range (AFWTR). Debris objects in space refer to the collection of defunct objects orbiting the Earth. Examples of debris include non-operational satellites, rocket bodies, and fragments generated from explosions, collisions, or faulty payload assembly.

Loading next visibility...
Identifier
42531, 1970-025SM
Orbit
SSO
Country
Flag of USUS
Related business
Manufacturer
Unknown
Mission
Spacecraft
Bus & Motor
Unknown
Mass
Unknown
Launch date (UTC)
1970-04-08 (56 years ago)
Launch vehicle
Unknown
Launch site
Air Force Western Test Range (AFWTR)
Object type
Payload
Rocket body
Debris
Shape & HBR
Unknown shape, 0.1 m
Radar Cross Section
Small (<0.1 m²)

Expand to show TLE details & history
Last TLE update: 3 days ago

TLE from 3 days ago
0 THORAD AGENA D DEB
1 42531U 70025SM  26035.13475892  .00000236  00000-0  43594-3 0  9993
2 42531  99.7786 153.1744 0053131 247.9090 237.9443 13.50263363600855
Epoch: 2026-02-04T03:14Z
TLE epoch observation values (Epoch: 2026-02-04T03:14:03.170Z)
Latitude
53.60102°
Longitude
163.80426°
Altitude
1,101.139 km
Speed
7.296 km/s
True Right ascension
23h 06m 29s
True Declination
53° 26' 39"
Sunlit
Object was in daylight at epoch
Visualization orbit readout
Latitude
Unknown
Longitude
Unknown
Altitude
Unknown
Speed
Unknown
Apparent Right ascension
Unknown
Apparent Declination
Unknown
Sunlit
N/A
Visualization observer readout
Local Sidereal Time
19:16:46
Azimuth
Unknown
Elevation
Unknown
Doppler factor
Unknown
Orbital elements
Apogee altitude
1,108.16 km
Perigee altitude
1,029.029 km
Semi-major axis
7,446.732 km
Eccentricity
0.00531
Inclination
99.7786°
RAAN
153.1744°
Arg. of periapsis
247.909°
True anomaly
237.43011°
Mean anomaly
237.9443°
Eccentric anomaly
237.68702°
Mean motion
3.37749 °/min
Orbital period
106.59 mins
BSTAR
0.00043594
Loading maneuver chart data...
Computing Atmospheric mass density...

Documentation

Showing up to 5 results
|